Tracking 30922 objects as of 2-Jul-2025
HD Live streaming from Space Station
objects crossing your sky now

SL-8 R/B

Track SL-8 R/B now!
10-day predictions


NORAD ID: 11170
Int'l Code: 1978-122B
Perigee: 1,164.8 km
Apogee: 1,202.5 km
Inclination: 83.0 °
Period: 108.9 minutes
Semi major axis: 7554 km
RCS: 7.1197 m2 (large)
Launch date: December 26, 1978
Source: Commonwealth of Independent States (former USSR) (CIS)
Launch site: PLESETSK MISSILE AND SPACE COMPLEX (PKMTR)

Note: This is a ROCKET BODY
Your satellite tracking list
Your tracking list is empty




NASA's NSSDC Master Catalog

Two Line Element Set (TLE):
1 11170U 78122B   25182.89141218  .00000062  00000-0  11714-3 0  9997
2 11170  82.9712  53.6954 0024936 196.0041 181.6915 13.22151872244292
Source of the keplerian elements: AFSPC